Wind_Speed
21 21 20 20 21 19 20 21 22 22 20 19 19 18 17 15 14 14 14 13 11 10 10 10 10 10 10 9 9 9 9 9 8 9 9 9 9 9 9 9 9 9 9 9 9 9 9 9 8
20 20 19 19 19 19 21 22 22 21 20 20 19 18 17 16 15 14 14 13 11 10 11 10 11 10 10 10 9 9 10 9 9 9 9 9 9 9 9 9 9 9 9 9 9 9 8 8 7
19 19 19 19 19 20 22 22 22 21 20 20 19 18 17 16 15 14 14 13 11 11 11 12 11 9 9 9 9 10 9 9 8 8 8 8 8 9 8 8 8 9 9 8 8 8 7 7 7
18 19 19 19 19 20 21 22 22 21 20 19 18 18 17 16 15 14 13 12 11 12 12 12 12 11 10 10 9 9 9 9 8 8 8 8 8 8 8 8 8 8 8 8 8 7 7 8 7
17 18 19 19 19 20 21 22 22 21 20 19 18 18 17 16 15 14 13 12 11 11 12 13 12 11 11 11 10 9 9 9 9 8 8 8 7 7 7 7 8 8 8 8 8 7 7 7 7
17 17 18 19 19 20 21 21 22 21 20 19 18 18 18 17 15 15 14 13 12 12 13 13 13 12 11 10 9 9 9 9 9 9 8 8 7 8 7 7 8 9 8 7 8 7 7 7 7
16 16 17 19 20 20 21 21 21 21 21 19 18 17 18 17 15 15 14 13 13 13 13 13 12 12 11 10 9 9 9 8 8 8 8 8 7 7 7 7 7 8 8 8 7 7 7 7 7
14 15 16 18 20 21 21 21 21 21 21 19 19 18 17 17 15 15 14 14 13 13 13 13 12 11 11 11 10 9 8 8 8 7 8 7 7 7 7 8 6 6 7 7 7 7 7 7 6
12 14 15 18 19 20 21 21 20 20 20 20 19 18 17 17 16 15 15 15 14 13 13 12 11 11 10 10 10 9 8 8 8 8 7 7 7 7 7 7 7 6 6 6 6 7 7 7 6
10 13 15 16 18 19 20 20 20 20 20 19 19 18 17 17 16 16 15 15 15 14 13 12 11 11 10 9 9 9 8 7 7 7 7 7 6 6 6 6 6 6 6 6 6 6 6 6 6
8 11 13 15 17 19 20 20 20 20 20 19 18 18 17 17 17 16 16 15 15 15 14 13 13 11 10 9 8 8 8 8 7 7 7 7 7 6 6 6 6 6 6 6 5 5 5 4 4
6 9 11 14 16 18 19 19 19 19 19 18 17 17 17 16 17 16 16 16 16 15 15 14 13 12 11 9 8 8 8 8 8 8 7 7 8 7 7 7 7 6 6 5 5 5 4 4 4
4 7 9 12 14 16 17 18 18 18 18 17 17 17 17 17 16 16 16 16 15 15 15 15 14 13 11 9 8 7 8 8 8 8 7 7 7 7 7 7 6 5 5 5 5 4 4 3 3
3 4 7 9 12 13 15 16 16 16 17 16 17 16 16 17 16 16 16 15 15 15 15 15 14 14 12 11 9 7 7 7 7 7 7 7 6 6 6 6 6 5 5 4 4 3 3 3 2
1 1 4 6 8 10 12 13 14 15 15 16 16 16 15 16 16 16 16 15 14 14 14 14 14 13 12 12 11 10 9 8 8 8 7 6 6 5 5 5 5 5 4 4 3 3 3 2 2
4 1 1 3 5 7 9 11 12 13 14 14 14 14 15 15 15 15 15 14 13 13 13 13 13 13 12 12 12 11 10 9 8 8 7 6 6 5 5 5 4 3 3 3 2 2 2 2 1
7 4 2 1 2 5 6 8 9 11 12 13 13 13 13 14 14 14 14 14 13 12 12 12 12 12 12 11 11 11 10 9 8 7 6 5 5 4 4 4 4 4 4 3 2 1 1 1 1
9 7 5 3 2 3 5 6 7 8 9 10 11 12 12 13 13 13 13 13 13 13 11 11 11 11 11 11 10 10 9 9 8 7 5 5 4 4 3 3 4 4 3 3 2 2 2 2 2
13 10 8 6 5 4 3 5 5 6 7 9 10 11 10 11 12 12 12 12 12 12 12 10 10 10 11 11 10 10 9 8 7 6 5 5 4 4 4 3 3 3 3 3 3 3 3 3 2
16 13 11 10 9 7 5 4 4 5 6 8 9 10 9 10 11 11 11 11 11 11 11 11 9 9 10 10 10 9 9 7 6 5 5 5 4 4 4 4 3 3 3 4 4 3 3 3 3
18 16 15 14 12 10 8 6 5 5 5 6 7 9 8 8 9 10 10 10 10 10 10 10 10 9 9 9 8 8 8 7 5 5 5 5 5 4 4 3 4 4 4 4 4 5 4 4 4
21 19 18 17 16 13 11 9 7 6 6 6 7 8 7 7 8 8 9 9 9 9 9 9 9 9 9 9 8 8 7 7 7 5 4 5 4 4 5 5 5 5 6 5 5 5 5 5 6
24 22 21 20 19 17 15 12 8 8 7 6 6 7 7 6 8 7 7 8 8 9 8 8 8 8 8 9 9 8 8 7 7 5 5 5 5 5 6 6 6 7 7 7 7 6 6 7 8
26 25 24 23 22 21 17 15 12 9 8 6 6 7 6 6 7 7 7 7 8 8 8 8 7 7 7 8 8 8 8 8 7 6 6 6 6 6 6 7 7 7 8 8 8 8 7 8 9
29 27 26 25 25 23 20 18 14 11 9 8 7 7 7 6 8 8 7 7 7 8 8 8 7 6 6 7 7 7 8 7 7 7 7 7 7 7 7 8 8 9 9 9 9 9 8 9 9
30 29 28 27 26 24 22 20 16 14 12 10 9 9 9 8 8 8 8 7 7 8 8 8 8 8 7 6 6 7 8 8 8 8 8 8 9 9 9 10 10 10 10 10 9 9 9 9 9
31 30 29 28 28 27 25 22 19 17 14 12 11 11 10 10 9 9 9 9 8 9 9 8 8 8 8 8 7 8 9 9 9 9 9 10 10 10 11 11 11 11 11 11 11 10 10 10 11
33 31 30 30 29 28 27 24 21 19 16 14 12 12 11 11 11 10 10 10 10 10 10 10 10 9 9 9 9 9 10 10 10 11 11 11 11 12 12 12 12 12 12 12 12 12 12 12 12
33 33 32 30 30 29 27 24 21 20 19 17 15 13 13 13 12 12 12 11 12 11 11 11 11 11 12 11 10 11 11 11 12 12 12 12 13 13 13 13 13 13 13 13 13 13 13 13 14
33 32 31 31 30 29 28 25 21 20 20 18 17 15 15 14 13 13 13 13 13 13 13 13 13 13 13 13 12 12 12 12 12 13 13 13 14 14 15 15 15 15 14 14 14 15 15 14 15
Wind_Direction
60 57 55 55 56 56 57 60 59 59 57 57 58 58 57 58 58 59 57 58 55 54 58 63 68 74 81 83 86 85 91 91 85 86 89 90 89 93 95 97 102 108 114 117 115 113 110 110 114
60 57 55 55 56 55 56 59 59 58 57 56 56 56 55 56 57 59 58 58 57 56 61 63 68 71 75 82 89 98 94 92 88 89 91 90 89 92 96 99 106 110 115 118 118 115 113 116 121
59 57 56 56 55 56 57 58 58 57 56 54 53 53 54 54 54 56 56 56 55 55 60 62 63 68 73 77 85 91 94 88 88 91 88 86 87 90 95 103 110 112 114 115 120 117 117 122 126
58 60 58 55 53 55 57 58 58 55 54 53 51 52 52 51 51 53 55 56 57 58 60 60 62 68 70 74 79 89 91 83 91 94 89 87 91 95 99 99 108 116 116 114 121 125 126 123 120
61 60 57 55 53 55 56 58 56 54 53 51 51 52 52 52 50 51 54 56 56 58 59 60 64 66 68 70 75 85 83 80 82 86 88 90 94 98 101 100 105 114 112 110 115 121 123 118 115
59 57 53 53 53 55 56 56 56 54 53 51 50 51 52 51 50 51 52 53 53 56 57 60 62 63 67 71 76 82 83 82 80 83 90 93 95 102 103 102 104 106 111 113 112 114 114 111 109
58 57 54 54 54 54 55 55 54 54 52 50 49 50 52 51 50 51 52 53 55 56 56 58 59 58 62 67 73 80 83 82 83 86 92 94 96 106 104 99 107 105 106 110 109 109 112 107 104
60 57 56 56 54 53 54 55 55 53 51 50 49 47 51 50 49 50 50 52 54 55 56 56 58 60 62 64 71 78 79 80 82 85 92 96 97 98 111 103 105 100 99 107 110 114 110 108 109
62 57 59 59 56 52 52 53 53 52 49 48 47 46 48 49 48 49 49 51 53 53 53 53 55 58 62 65 71 78 80 81 81 82 86 90 93 97 105 109 105 102 101 98 104 115 108 104 103
64 60 59 59 56 53 52 51 50 49 47 46 47 47 48 49 48 47 48 51 53 53 53 53 53 57 61 65 70 75 80 84 83 82 83 87 94 97 98 108 109 101 97 96 95 99 101 101 101
62 60 59 58 56 55 53 50 48 47 45 44 45 47 48 48 48 47 49 51 51 52 55 53 53 54 58 65 66 72 76 80 84 84 85 87 88 91 94 100 99 93 92 92 86 85 88 97 96
64 62 60 57 57 56 53 48 46 45 44 43 42 43 45 47 48 48 49 49 47 49 51 50 50 53 56 63 70 77 78 78 80 85 90 90 86 89 90 87 82 83 83 82 83 85 95 98 87
63 62 58 60 60 57 52 47 44 41 42 41 41 41 43 44 45 46 47 48 47 48 50 50 48 49 53 58 66 77 83 83 81 83 89 89 86 87 85 81 79 83 84 77 78 86 99 96 88
44 61 62 62 62 59 51 48 44 40 36 36 37 41 42 42 42 43 44 46 47 48 48 48 47 48 51 60 64 72 78 81 79 80 83 83 83 86 87 84 78 78 77 69 73 84 83 83 82
288 46 56 64 64 59 52 49 44 38 34 32 35 40 40 40 40 40 41 44 46 45 45 46 46 47 52 56 59 64 70 70 76 75 76 75 74 74 75 78 81 78 74 75 87 83 71 61 67
247 265 26 52 56 55 49 46 45 37 32 31 34 38 39 40 39 38 38 41 45 44 45 46 46 49 55 58 60 64 66 67 72 72 72 67 66 66 67 74 74 70 66 63 73 78 69 52 54
244 251 266 333 34 43 41 38 40 35 28 28 31 32 35 38 38 38 37 39 41 43 45 48 49 51 53 55 57 63 63 64 69 72 70 66 60 61 67 63 58 51 54 55 47 55 17 355 349
244 250 263 280 316 7 22 26 28 26 21 17 20 23 28 33 33 36 37 39 39 40 45 47 49 50 51 52 56 60 59 59 62 65 64 60 55 55 62 58 43 35 36 33 22 357 323 318 321
240 245 253 262 280 297 330 358 5 9 6 5 8 14 20 25 27 32 35 37 37 37 39 42 43 49 50 52 55 55 54 55 58 60 58 51 49 49 46 38 31 25 15 6 352 336 319 310 324
235 238 245 254 265 275 289 318 341 347 347 349 356 4 10 15 20 26 30 33 35 37 36 39 43 46 47 47 46 46 47 48 50 47 38 34 30 26 18 9 2 354 352 351 343 343 338 326 321
231 235 239 245 254 263 272 284 304 322 332 338 343 353 359 9 17 22 23 26 31 32 32 32 32 36 39 37 39 37 35 33 32 32 20 9 8 3 353 345 345 345 342 335 328 328 328 322 314
231 234 237 242 249 256 265 273 284 291 303 318 329 340 353 5 12 17 16 18 23 24 23 23 24 27 30 31 29 29 26 22 19 15 11 4 358 349 344 336 332 330 328 326 319 317 317 316 315
230 233 237 241 246 251 258 265 273 284 290 304 324 336 340 352 357 4 6 7 10 12 12 12 15 16 19 20 20 21 21 18 17 14 7 359 352 341 336 327 324 323 323 326 321 315 312 315 316
230 232 235 240 245 249 255 260 265 276 279 291 312 324 327 334 345 353 356 355 359 2 0 359 0 4 5 7 6 6 7 7 6 1 351 350 344 337 329 321 316 314 314 317 319 315 309 308 311
230 232 234 239 244 251 254 256 261 267 271 276 288 305 311 319 333 338 343 343 343 348 345 345 344 346 348 352 355 354 353 353 350 345 338 335 333 329 322 316 312 309 309 308 309 306 307 307 307
231 234 237 241 245 250 251 252 256 261 264 271 278 290 299 308 317 325 326 324 323 330 331 329 330 329 329 335 342 343 342 339 336 334 330 326 324 321 316 312 310 307 306 304 306 306 302 303 302
230 232 236 241 244 248 250 252 253 256 264 273 279 283 292 293 300 309 315 316 314 313 315 310 311 316 314 317 327 327 328 327 327 324 322 319 317 315 311 309 310 304 303 305 305 304 300 297 299
228 232 235 238 242 246 249 250 253 256 264 273 280 279 283 282 286 296 302 305 304 303 302 302 302 303 307 312 318 320 318 319 319 319 317 316 315 314 312 307 308 303 300 298 297 297 297 294 295
228 230 234 238 242 246 248 249 254 258 263 267 275 276 276 273 279 286 292 294 295 295 297 303 303 304 303 303 308 310 312 314 313 312 313 314 314 311 311 308 304 301 300 300 299 298 297 295 298
228 230 234 238 242 245 249 251 253 256 259 263 267 271 271 267 276 283 287 286 287 288 292 295 297 300 298 296 299 302 305 310 311 309 308 308 310 309 307 306 306 305 298 295 295 295 293 293 298
Height
5892 5891 5890 5889 5888 5886 5883 5882 5880 5879 5879 5877 5876 5875 5874 5874 5874 5875 5872 5869 5869 5868 5867 5866 5865 5865 5865 5865 5865 5865 5865 5865 5866 5866 5866 5867 5867 5867 5868 5868 5869 5870 5871 5872 5872 5873 5874 5875 5876
5895 5894 5894 5892 5889 5887 5886 5883 5882 5882 5881 5879 5878 5877 5876 5875 5875 5874 5872 5872 5871 5870 5869 5868 5867 5867 5866 5866 5866 5866 5866 5867 5867 5867 5868 5868 5868 5869 5869 5870 5870 5871 5872 5873 5873 5874 5875 5876 5877
5898 5897 5897 5894 5891 5890 5888 5886 5884 5884 5883 5882 5881 5880 5879 5878 5877 5876 5875 5874 5873 5872 5870 5869 5869 5868 5868 5868 5868 5868 5868 5868 5868 5869 5869 5869 5870 5870 5870 5871 5872 5872 5873 5874 5874 5876 5876 5877 5877
5901 5901 5899 5897 5894 5892 5890 5888 5887 5886 5885 5884 5883 5882 5880 5880 5878 5877 5876 5876 5875 5873 5872 5871 5870 5870 5870 5870 5870 5870 5870 5870 5870 5870 5870 5871 5871 5872 5872 5872 5873 5873 5874 5875 5876 5876 5877 5878 5878
5904 5903 5901 5899 5897 5895 5893 5891 5889 5888 5888 5887 5886 5884 5883 5882 5881 5879 5878 5877 5876 5875 5874 5873 5872 5872 5872 5871 5871 5871 5872 5872 5872 5872 5872 5872 5873 5873 5873 5874 5874 5874 5875 5876 5877 5878 5878 5879 5879
5906 5905 5904 5901 5900 5897 5895 5893 5892 5891 5890 5889 5888 5887 5885 5884 5883 5881 5880 5879 5878 5877 5876 5875 5874 5873 5873 5873 5873 5873 5873 5873 5874 5874 5874 5874 5874 5874 5875 5875 5875 5876 5877 5878 5878 5879 5879 5880 5881
5908 5907 5905 5904 5902 5900 5898 5896 5894 5894 5893 5892 5890 5889 5887 5886 5885 5884 5882 5881 5880 5879 5877 5876 5876 5875 5875 5874 5874 5874 5875 5875 5875 5875 5875 5875 5876 5876 5876 5876 5876 5877 5878 5879 5880 5880 5881 5881 5882
5910 5910 5907 5906 5904 5903 5901 5899 5897 5896 5895 5894 5893 5891 5890 5889 5887 5886 5884 5883 5882 5880 5879 5878 5878 5877 5876 5876 5876 5876 5876 5876 5877 5877 5877 5877 5877 5878 5878 5878 5878 5879 5879 5880 5881 5881 5882 5882 5883
5911 5912 5909 5908 5907 5906 5904 5902 5901 5899 5898 5897 5895 5894 5892 5891 5889 5888 5886 5885 5884 5882 5881 5880 5880 5879 5878 5878 5878 5878 5878 5878 5878 5878 5878 5879 5879 5879 5879 5880 5880 5881 5881 5881 5882 5883 5883 5884 5884
5913 5913 5912 5911 5909 5908 5906 5905 5904 5902 5901 5899 5898 5896 5894 5893 5892 5890 5888 5887 5886 5885 5883 5882 5881 5880 5880 5880 5879 5879 5879 5879 5879 5880 5880 5880 5880 5881 5881 5881 5882 5882 5882 5883 5883 5884 5884 5885 5885
5914 5914 5913 5912 5911 5910 5909 5908 5906 5905 5903 5902 5901 5899 5897 5896 5894 5892 5891 5889 5888 5887 5885 5884 5883 5882 5881 5881 5881 5881 5881 5881 5881 5881 5881 5881 5882 5882 5882 5883 5883 5883 5884 5884 5884 5885 5885 5886 5886
5916 5915 5915 5914 5913 5913 5911 5911 5909 5908 5907 5906 5904 5902 5900 5898 5897 5895 5893 5891 5890 5889 5887 5886 5885 5884 5883 5882 5882 5882 5882 5882 5882 5882 5883 5883 5883 5883 5884 5884 5884 5885 5885 5885 5886 5886 5886 5887 5887
5917 5917 5916 5916 5915 5914 5914 5913 5912 5911 5910 5908 5906 5905 5903 5901 5899 5897 5895 5894 5892 5891 5890 5888 5887 5886 5885 5884 5883 5883 5883 5884 5884 5884 5884 5884 5885 5885 5885 5886 5886 5886 5886 5887 5887 5887 5887 5888 5888
5918 5918 5917 5917 5916 5916 5916 5915 5915 5914 5912 5911 5909 5907 5905 5903 5901 5899 5897 5896 5895 5893 5892 5891 5889 5888 5886 5886 5885 5885 5885 5885 5885 5885 5885 5886 5886 5886 5887 5887 5887 5887 5887 5887 5887 5888 5888 5888 5889
5918 5919 5919 5918 5918 5917 5918 5917 5917 5916 5915 5913 5911 5909 5907 5905 5903 5901 5900 5898 5897 5896 5894 5893 5892 5890 5889 5888 5888 5887 5887 5887 5887 5887 5887 5887 5887 5887 5888 5888 5888 5888 5888 5888 5888 5888 5888 5889 5889
5918 5919 5919 5919 5918 5918 5920 5919 5918 5917 5917 5915 5913 5912 5910 5908 5906 5904 5902 5901 5899 5898 5897 5896 5894 5893 5892 5891 5890 5890 5889 5889 5889 5889 5889 5889 5889 5889 5889 5889 5889 5889 5889 5889 5889 5888 5889 5889 5889
5916 5918 5919 5919 5919 5919 5920 5919 5919 5919 5918 5917 5915 5914 5912 5910 5908 5907 5905 5903 5902 5900 5899 5898 5897 5896 5895 5894 5893 5892 5891 5891 5891 5891 5891 5891 5890 5890 5890 5890 5890 5889 5889 5890 5890 5889 5889 5889 5889
5916 5917 5918 5919 5919 5920 5920 5920 5920 5920 5919 5918 5917 5915 5914 5912 5910 5908 5907 5905 5904 5902 5901 5900 5899 5898 5897 5896 5895 5894 5893 5893 5893 5892 5892 5892 5892 5891 5891 5891 5891 5890 5890 5890 5890 5890 5889 5889 5889
5914 5915 5916 5918 5918 5919 5920 5920 5921 5920 5920 5919 5918 5916 5915 5913 5912 5910 5908 5907 5906 5904 5903 5902 5901 5900 5899 5898 5897 5896 5895 5895 5894 5894 5893 5893 5893 5892 5892 5892 5892 5891 5891 5891 5890 5890 5889 5889 5889
5911 5913 5915 5916 5917 5919 5919 5920 5920 5920 5920 5920 5919 5917 5916 5914 5913 5912 5910 5909 5907 5906 5904 5903 5902 5901 5900 5899 5899 5898 5897 5896 5895 5895 5894 5894 5893 5893 5893 5893 5892 5892 5892 5891 5890 5890 5889 5889 5888
5909 5912 5913 5915 5916 5917 5919 5920 5920 5920 5920 5920 5919 5918 5916 5915 5914 5913 5912 5910 5909 5907 5906 5905 5904 5903 5901 5901 5900 5899 5898 5897 5896 5896 5895 5895 5894 5894 5893 5893 5893 5892 5892 5891 5890 5890 5889 5889 5888
5907 5909 5911 5912 5914 5915 5917 5918 5919 5919 5920 5919 5919 5918 5917 5916 5914 5913 5912 5911 5910 5908 5907 5906 5905 5904 5903 5902 5901 5900 5899 5898 5897 5896 5895 5895 5894 5894 5894 5893 5893 5892 5891 5890 5890 5889 5888 5888 5887
5904 5906 5908 5910 5911 5913 5914 5916 5919 5918 5919 5919 5918 5918 5917 5916 5915 5913 5912 5911 5910 5909 5907 5906 5905 5904 5903 5902 5901 5900 5899 5898 5898 5897 5896 5895 5894 5894 5893 5892 5892 5891 5890 5890 5889 5888 5887 5887 5886
5900 5902 5904 5906 5908 5910 5912 5914 5916 5917 5918 5918 5918 5917 5916 5916 5915 5913 5912 5911 5910 5909 5907 5906 5905 5905 5904 5902 5901 5901 5900 5899 5898 5897 5896 5895 5894 5893 5892 5892 5891 5890 5889 5889 5888 5887 5886 5886 5885
5895 5898 5901 5902 5904 5906 5909 5910 5914 5915 5916 5916 5916 5916 5915 5915 5914 5913 5912 5911 5910 5909 5907 5906 5905 5904 5903 5902 5901 5900 5900 5899 5898 5897 5896 5894 5893 5892 5891 5890 5890 5889 5888 5887 5886 5885 5884 5883 5883
5890 5894 5897 5899 5901 5903 5905 5907 5911 5912 5913 5914 5914 5914 5913 5913 5912 5912 5911 5910 5909 5908 5907 5906 5904 5904 5902 5901 5900 5900 5899 5898 5897 5896 5895 5894 5892 5891 5890 5889 5888 5887 5886 5885 5884 5884 5882 5881 5880
5886 5889 5893 5895 5897 5899 5901 5904 5907 5909 5910 5911 5912 5912 5911 5911 5911 5910 5909 5908 5908 5907 5905 5904 5903 5902 5901 5900 5898 5898 5898 5897 5896 5894 5893 5892 5891 5890 5888 5887 5886 5885 5884 5883 5882 5881 5880 5879 5878
5881 5884 5887 5890 5892 5894 5897 5900 5903 5905 5907 5908 5909 5909 5909 5909 5909 5909 5908 5907 5906 5905 5904 5903 5902 5901 5899 5898 5897 5897 5896 5895 5894 5893 5892 5891 5889 5888 5887 5885 5884 5883 5882 5881 5880 5878 5877 5875 5874
5875 5879 5882 5885 5888 5890 5892 5898 5900 5902 5903 5904 5905 5906 5906 5906 5906 5906 5906 5905 5904 5903 5902 5901 5900 5899 5898 5897 5896 5896 5894 5893 5892 5891 5890 5888 5887 5886 5884 5883 5882 5880 5879 5878 5877 5875 5874 5873 5872
5870 5874 5877 5881 5883 5886 5888 5895 5895 5897 5899 5900 5902 5902 5902 5902 5903 5903 5903 5902 5902 5901 5900 5899 5898 5897 5895 5894 5894 5893 5892 5891 5890 5888 5887 5886 5884 5883 5882 5880 5879 5877 5876 5875 5873 5872 5870 5870 5869